Hlavní strana
METAR-TAF:

METAR-TAF

Letiště :

Shelbyville, Tennessee, Spojené státy americké

zeměpisná šířka: 35-33-34N, zeměpisná délka: 086-26-33W, výška: 244 m

Aktuální stav počasí

Zpráva byla vytvořena před 25 minutami, v 01:15 UTC
Východoseverovýchodní vítr 3 kt
Teplota 4°C
Vlhkost vzduchu 65%
Tlak 1022 hPa
Viditelnost: 16.1 km
Jasno

METAR: KSYI 220115Z AUTO 06003KT 10SM CLR 04/M02 A3017 RMK A01

Čas: 20:40 (01:40 UTC)


TAF: chybějící

Stav a předpovědi počasí z více než 4 000 letišť (zprávy METAR a TAF).

Červené a žluté tečky na mapě představují dostupné meteorologické stanice.

Když kurzor umístíte na tečku, zobrazí se název stanice.

Pak kliknutím zobrazíte stav a předpověď počasí.

Chcete-li změnit mapu, kliknutím na zelené tlačítko se znaménkem +mapu přiblížíte, kliknutím na zelené tlačítko se znaménkem – mapu oddálíte a kliknutím na zelené šipky přejdete na sousední mapy.


METAR-TAF: